SCP
0 0 0 0 0 0 0 0 0 0 0 0 0 0 0 0 0 0 0 0 0 0 0 0 0 0 0 0 0 0 0 0 0 0 0 0 0 0 0 0 0 0 0
0 0 0 0 0 0 0 0 0 0 0 0 0 0 0 0 0 0 0 0 0 0 0 0 0 0 0 0 0 0 0 0 0 0 0 0 0 0 0 0 0 0 0
0 0 0 0 0 0 0 0 0 0 0 0 0 0 0 0 0 0 0 0 0 0 0 0 0 0 0 0 0 0 0 0 0 0 0 0 0 0 0 0 0 0 0
0 0 0 0 0 0 0 0 0 0 0 0 0 0 0 0 0 0 0 0 0 0 0 0 0 0 0 0 0 0 0 0 0 0 0 0 0 0 0 0 0 0 0
0 0 0 0 0 0 0 0 0 0 0 0 0 0 0 0 0 0 0 0 0 0 0 0 0 0 0 0 0 0 0 0 0 0 0 0 0 0 0 0 0 0 0
0 0 0 0 0 0 0 0 0 0 0 0 0 0 0 0 0 0 0 0 0 0 0 0 0 0 0 0 0 0 0 0 0 0 0 0 0 0 0 0 0 0 0
0 0 0 0 0 0 0 0 0 0 0 0 0 0 0 0 0 0 0 0 0 0 0 0 0 0 0 0 0 0 0 0 0 0 0 0 0 0 0 0 0 0 0
0 0 0 0 0 0 0 0 0 0 0 0 0 0 0 0 0 0 0 0 0 0 0 0 0 0 0 0 0 0 0 0 0 0 0 0 0 0 0 0 0 0 0
0 0 0 0 0 0 0 0 0 0 0 0 0 0 0 0 0 0 0 0 0 0 0 0 0 0 0 0 0 0 0 0 0 0 0 0 0 0 0 0 0 0 0
0 0 0 0 0 0 0 0 0 0 0 0 0 0 0 0 0 0 0 0 0 0 0 0 0 0 0 0 0 0 0 0 0 0 0 0 0 0 0 0 0 0 0
0 0 0 0 0 0 0 0 0 0 0 0 0 0 0 0 0 0 0 0 0 0 0 0 0 0 0 0 0 0 0 0 0 0 0 0 0 0 0 0 0 0 0
0 0 0 0 0 0 0 0 0 0 0 0 0 0 0 0 0 0 0 0 0 0 0 0 0 0 0 0 0 0 0 0 0 0 0 0 0 0 0 0 0 0 0
0 0 0 0 0 0 0 0 0 0 0 0 0 0 0 0 0 0 0 0 0 0 0 0 0 0 0 0 0 0 0 0 0 0 0 0 0 0 0 0 0 0 0
0 0 0 0 0 0 0 0 0 0 0 0 0 0 0 0 0 0 0 0 0 0 0 0 0 0 0 0 0 0 0 0 0 0 0 0 0 0 0 0 0 0 0
0 0 0 0 0 0 0 0 0 0 0 0 0 0 0 0 0 0 0 0 0 0 0 0 0 0 0 0 0 0 0 0 0 0 0 0 0 0 0 0 0 0 0
0 0 0 0 0 0 0 0 0 0 0 0 0 0 0 0 0 0 0 0 0 0 0 0 0 0 0 0 0 0 0 0 0 0 0 0 0 0 0 0 0 0 0
0 0 0 0 0 0 0 0 0 0 0 0 0 0 0 0 0 0 0 0 0 0 0 0 0 0 0 0 0 0 0 0 0 0 0 0 0 0 0 0 0 0 0
0 0 0 0 0 0 0 0 0 0 0 0 0 0 0 0 0 0 0 0 0 0 0 0 0 0 0 0 0 0 0 0 0 0 0 0 0 0 0 0 0 0 0
0 0 0 0 0 0 0 0 0 0 0 0 0 0 0 0 0 0 0 0 0 0 0 0 0 0 0 0 0 0 0 0 0 0 0 0 0 0 0 0 0 0 0
0 0 0 0 0 0 0 0 0 0 0 0 0 0 0 0 0 0 0 0 0 0 0 0 0 0 0 0 0 0 0 0 0 0 0 0 0 0 0 0 0 0 0
0 0 0 0 0 0 0 0 0 0 0 0 0 0 0 0 0 0 0 0 0 0 0 0 0 0 0 0 0 0 0 0 0 0 0 0 0 0 0 0 0 0 0
0 0 0 0 0 0 0 0 0 0 0 0 0 0 0 0 0 0 0 0 0 0 0 0 0 0 0 0 0 0 0 0 0 0 0 0 0 0 0 0 0 0 0
0 0 0 0 0 0 0 0 0 0 0 0 0 0 0 0 0 0 0 0 0 0 0 0 0 0 0 0 0 0 0 0 0 0 0 0 0 0 0 0 0 0 0
0 0 0 0 0 0 0 0 0 0 0 0 0 0 0 0 0 0 0 0 0 0 0 0 0 0 0 0 0 0 0 0 0 0 0 0 0 0 0 0 0 0 0
0 0 0 0 0 0 0 0 0 0 0 0 0 0 0 0 0 0 0 0 0 0 0 0 0 0 0 0 0 0 0 0 0 0 0 0 0 0 0 0 0 0 0
0 0 0 0 0 0 0 0 0 0 0 0 0 0 0 0 0 0 0 0 0 0 0 0 0 0 0 0 0 0 0 0 0 0 0 0 0 0 0 0 0 0 0
Wind_Speed
4 4 5 4 5 5 5 6 6 6 6 6 6 6 5 5 5 5 5 5 5 4 4 4 4 3 3 2 2 2 1 0 3 3 2 3 3 4 6 5 5 5 6
4 4 4 4 5 5 5 5 6 6 5 6 6 6 6 5 5 6 6 5 6 5 5 5 4 3 3 2 2 2 1 1 1 3 3 3 4 5 5 6 6 5 5
4 4 4 4 5 5 5 5 6 6 6 6 6 7 6 5 5 5 6 6 5 5 5 5 4 4 3 2 2 2 1 1 0 2 4 3 3 4 5 5 6 5 5
4 4 4 4 5 5 5 6 6 6 7 7 6 6 6 6 6 6 6 7 6 5 5 5 4 4 3 3 2 2 1 0 1 2 3 3 4 4 4 5 7 5 6
5 5 4 4 5 6 6 6 6 6 6 7 7 7 6 5 5 6 6 7 7 6 5 5 4 4 4 3 2 1 1 0 1 2 3 4 4 5 5 5 8 8 7
6 5 5 5 5 6 6 7 7 7 6 7 7 7 6 4 9 10 8 6 6 6 5 4 4 3 3 4 3 2 1 1 2 2 3 5 6 6 6 6 8 9 7
6 6 6 6 6 6 6 7 7 6 6 7 6 6 6 7 10 10 10 6 6 5 4 4 2 2 2 1 1 2 3 4 4 3 4 5 6 6 7 8 7 8 9
6 6 6 7 7 6 6 6 6 6 6 6 6 6 6 6 10 10 10 6 5 4 4 3 3 2 1 0 0 1 2 3 4 2 3 5 5 5 5 6 7 8 8
7 7 7 8 8 8 7 7 5 6 6 5 5 6 6 6 9 10 9 5 4 4 3 2 2 1 1 2 1 1 3 3 5 7 8 8 11 11 9 5 5 6 7
7 7 6 7 8 8 8 7 5 6 6 6 6 5 5 5 8 9 8 4 4 3 2 1 1 1 3 3 1 1 3 3 3 4 5 7 6 7 9 5 4 5 6
5 6 6 6 7 7 7 6 7 7 7 6 6 4 4 3 6 7 7 3 3 3 2 1 0 2 3 3 3 1 4 4 3 3 3 4 4 3 4 4 4 4 5
6 7 6 6 6 6 8 7 7 8 8 7 6 4 2 2 3 4 5 4 4 3 2 1 0 2 3 3 3 4 6 5 2 2 3 3 4 4 5 5 5 5 6
7 7 7 6 5 6 7 8 7 6 6 5 5 5 3 2 2 3 3 4 4 3 2 2 0 1 3 3 4 5 4 2 2 2 3 4 4 5 6 5 5 5 6
7 7 6 7 6 5 4 5 6 6 5 5 5 5 4 3 2 2 2 2 2 2 2 2 3 3 3 3 3 3 2 2 2 2 3 4 4 4 4 4 5 6 5
6 6 5 5 6 5 4 3 4 3 4 6 5 5 6 5 5 7 5 3 3 3 3 2 2 1 1 1 1 1 1 2 2 2 2 3 4 4 4 4 4 4 4
6 5 4 4 4 4 5 4 3 4 4 5 6 6 3 5 7 7 7 6 5 7 4 2 2 1 1 1 1 1 1 1 2 2 2 3 4 4 5 4 4 4 5
5 5 4 4 5 5 5 5 4 3 3 4 5 6 6 6 7 7 6 5 5 6 3 2 2 2 2 1 1 1 1 1 1 2 2 3 3 4 4 5 5 4 5
4 4 4 4 4 5 5 4 4 5 4 2 2 4 5 6 6 6 6 6 2 2 2 2 3 2 2 2 2 2 2 2 1 2 2 2 2 3 4 4 4 5 6
3 3 3 3 3 3 3 4 3 4 4 3 2 1 2 4 4 4 4 3 3 3 2 2 2 3 2 2 2 2 2 2 2 2 2 3 2 2 3 4 4 6 5
2 3 3 3 3 3 3 4 4 4 4 4 4 3 2 2 2 2 2 2 3 3 3 3 3 3 3 3 2 2 2 3 3 3 3 3 3 3 4 5 4 5 5
2 2 3 3 3 3 3 4 4 4 4 4 3 4 7 4 4 4 4 3 3 4 3 3 3 3 3 3 3 3 4 3 3 3 3 3 3 3 3 4 4 5 5
2 2 2 2 2 2 3 3 3 3 4 4 2 3 6 3 3 3 4 4 4 3 3 3 3 3 4 4 4 4 4 4 4 4 4 3 3 3 3 4 4 4 5
1 2 2 1 2 2 2 2 3 3 4 4 3 3 3 3 4 4 4 3 3 3 3 3 4 4 4 4 4 5 5 5 4 4 4 4 4 4 3 4 5 5 5
1 2 2 2 2 2 3 3 3 3 3 3 3 4 4 4 4 4 4 3 3 3 3 3 4 5 6 5 4 4 5 5 5 4 6 5 5 4 4 4 5 6 6
1 1 2 2 3 3 3 3 3 3 3 3 3 3 3 3 4 4 4 3 4 4 5 4 4 5 6 7 6 5 7 9 7 5 5 5 6 5 5 6 5 5 5
1 1 2 2 2 2 3 3 3 3 3 4 4 4 4 4 4 4 4 4 4 4 4 4 5 6 7 6 7 9 10 10 10 9 6 5 6 6 6 5 6 6 6
Wind_Direction
178 178 175 175 171 168 171 171 163 154 156 158 153 145 140 136 137 136 134 130 129 123 117 116 109 104 104 94 92 93 88 151 255 286 305 328 330 333 328 322 316 314 317
165 161 161 156 154 157 158 154 149 146 148 146 138 132 129 128 129 134 131 128 129 129 123 119 116 111 105 99 98 92 91 91 244 286 303 317 315 319 316 316 318 314 306
147 146 144 146 148 148 144 138 137 136 133 130 130 131 128 126 124 122 125 121 120 122 123 122 121 117 108 101 98 97 91 56 319 277 294 301 304 313 317 311 304 300 302
144 144 147 148 143 136 130 127 127 129 131 126 119 117 116 115 116 116 117 115 111 103 98 101 103 108 115 117 106 101 86 47 317 298 294 300 302 307 314 320 321 318 312
150 151 150 136 125 122 121 119 117 115 117 118 115 108 107 111 119 122 116 115 113 106 96 93 93 95 98 106 109 111 99 348 313 310 306 311 314 326 328 321 315 315 303
158 156 143 134 129 127 127 123 119 115 115 115 116 120 118 118 127 124 122 117 118 119 115 103 97 91 89 78 69 51 14 310 296 292 300 307 312 314 314 312 314 320 315
155 151 147 143 139 136 132 128 129 126 121 118 117 120 118 123 126 125 123 119 118 117 118 118 109 91 82 73 27 6 342 318 304 290 292 299 305 310 310 309 309 305 297
156 156 154 149 144 138 135 135 131 126 126 121 118 116 112 122 127 126 121 111 109 110 115 122 122 106 62 57 10 332 311 302 307 311 277 286 291 298 294 299 303 300 288
167 168 164 157 150 148 147 143 134 127 121 116 119 121 119 122 130 131 124 117 114 112 111 110 115 131 300 343 21 318 313 303 318 321 313 314 317 321 325 321 318 315 307
178 168 158 155 154 153 148 138 126 125 123 120 116 115 121 124 135 135 130 125 127 130 122 113 127 269 310 335 7 312 306 312 328 330 328 327 327 324 329 324 310 306 304
146 138 141 145 145 142 133 130 130 127 123 120 119 111 110 119 138 140 143 137 144 144 148 151 270 322 330 337 352 335 318 339 342 331 324 324 328 327 326 322 312 299 294
130 132 134 134 133 134 132 130 131 132 130 132 130 124 114 110 129 147 150 148 144 148 160 161 264 334 347 356 6 356 1 11 1 346 335 331 330 328 323 318 311 302 286
131 133 132 129 128 136 140 141 138 141 143 148 151 153 153 147 154 153 155 156 153 142 139 141 99 29 31 28 24 27 31 26 8 352 334 326 323 317 317 315 312 309 295
137 137 138 138 136 134 138 145 150 157 156 157 163 164 161 167 176 170 155 148 145 131 112 84 59 51 61 51 31 28 22 11 358 331 319 316 317 318 320 326 323 327 321
135 136 138 138 140 137 131 140 152 156 169 169 174 168 169 185 196 183 167 171 164 156 126 93 71 61 41 15 11 11 7 6 358 339 326 320 321 324 323 329 324 327 319
140 144 145 142 141 141 134 113 116 134 151 166 166 164 172 178 174 180 178 173 170 158 132 137 168 181 200 227 287 318 328 339 335 326 319 316 319 321 320 321 320 320 313
148 151 149 152 154 155 155 154 146 123 128 152 165 171 172 173 176 178 176 162 155 154 150 168 186 197 209 218 231 241 261 290 306 306 304 305 307 308 311 316 321 319 311
139 148 153 160 163 165 168 166 164 163 164 171 180 181 179 177 178 179 172 150 146 150 174 188 201 205 209 215 224 235 252 272 278 282 286 290 295 298 305 309 311 309 309
144 151 152 151 155 158 157 155 159 167 171 169 156 185 187 179 167 167 158 163 182 196 199 202 204 206 212 217 223 229 238 251 261 269 270 275 280 287 292 296 299 302 302
142 150 150 152 153 157 161 165 170 175 178 184 192 192 169 152 175 190 184 181 191 203 205 210 212 214 216 219 223 225 236 244 251 252 257 263 267 268 278 287 290 296 295
136 148 150 152 167 173 174 179 181 182 190 197 205 206 196 188 197 201 202 204 206 209 209 211 212 214 214 214 215 222 231 240 241 244 251 255 259 265 268 272 279 281 286
147 159 162 171 173 175 178 180 181 188 194 199 205 219 214 192 202 214 217 217 213 210 206 205 211 212 210 210 212 216 227 237 240 240 247 251 251 256 263 269 274 281 284
142 151 159 164 169 171 174 182 188 194 200 202 200 203 209 211 211 217 224 223 215 213 208 205 213 224 222 217 213 211 221 231 230 224 234 245 248 249 251 260 268 276 278
147 163 172 177 179 188 195 200 204 207 208 209 210 212 217 219 221 224 223 221 219 219 215 212 218 228 233 231 224 221 226 234 229 223 223 232 242 246 247 254 259 262 270
166 181 188 193 195 199 203 207 211 213 214 215 217 219 222 223 225 227 224 221 223 227 230 225 223 229 236 239 239 239 246 252 243 220 216 221 234 239 242 250 255 261 265
193 199 203 203 205 206 209 214 218 219 222 224 223 222 223 225 226 226 223 221 224 228 232 230 228 233 239 244 248 251 253 253 245 230 214 216 225 234 233 242 250 255 262